Southern Junior High School, Massachusetts, United States
Lat: 42.38N, Lon: 71.1W
Wx Zone: MAZ014
Local Info
Past Weather Observations for Today

NOTE: This archive is for the closest National Weather Service station to Southern Junior High School. Information may differ from the station used for current weather conditions.

Time Weather Temperature Dewpoint Humidity Pressure Winds Precip Visibility
19:54
Overcast
50°F / 10°C 32°F / 0°C 50% 29.56 in
(1001 mb)
NW 17.3 mph
(NW 28 kph)
- 10SM
18:54
Overcast
52°F / 11°C 34°F / 1°C 50% 29.53 in
(1000 mb)
NW 19.6 mph
(NW 32 kph)
- 10SM
17:54
Overcast
52°F / 11°C 34°F / 1°C 50% 29.5 in
(999 mb)
NW 18.4 mph
(NW 30 kph)
- 10SM
16:54
Overcast
52°F / 11°C 34°F / 1°C 50% 29.5 in
(999 mb)
NW 25.3 mph
(NW 41 kph)
- 10SM
15:54
Overcast
52°F / 11°C 36°F / 2°C 54% 29.47 in
(998 mb)
NW 24.2 mph
(NW 39 kph)
- 10SM
14:54
Overcast
54°F / 12°C 37°F / 3°C 54% 29.44 in
(997 mb)
NW 24.2 mph
(NW 39 kph)
0.00 in
(0.00 mm)
10SM
13:54
Overcast
Light Rain
48°F / 9°C 43°F / 6°C 82% 29.44 in
(997 mb)
NW 11.5 mph
(NW 19 kph)
0.07 in
(1.78 mm)
10SM
12:54
Overcast
Rain
50°F / 10°C 45°F / 7°C 82% 29.44 in
(997 mb)
NW 17.3 mph
(NW 28 kph)
0.07 in
(1.78 mm)
3SM
11:54
Overcast
Light Rain
52°F / 11°C 45°F / 7°C 77% 29.44 in
(997 mb)
NW 17.3 mph
(NW 28 kph)
0.00 in
(0.00 mm)
8SM
10:54
Overcast
Light Rain
52°F / 11°C 48°F / 9°C 88% 29.44 in
(997 mb)
NW 13.8 mph
(NW 22 kph)
0.01 in
(0.25 mm)
5SM
10:05
Overcast
Light Rain
52°F / 11°C 48°F / 9°C 88% 29.44 in
(997 mb)
NW 12.7 mph
(NW 20 kph)
0.00 in
(0.00 mm)
7SM
09:54
Overcast
52°F / 11°C 48°F / 9°C 88% 29.44 in
(997 mb)
NW 15 mph
(NW 24 kph)
0.00 in
(0.00 mm)
8SM
08:54
Overcast
Light Rain
54°F / 12°C 48°F / 9°C 82% 29.44 in
(997 mb)
NW 6.9 mph
(NW 11 kph)
0.07 in
(1.78 mm)
3SM
08:13
Overcast
Light Rain
54°F / 12°C 46°F / 8°C 77% 29.47 in
(998 mb)
NW 8.1 mph
(NW 13 kph)
0.04 in
(1.02 mm)
3SM
08:10
Overcast
Light Rain
54°F / 12°C 46°F / 8°C 77% 29.47 in
(998 mb)
NW 6.9 mph
(NW 11 kph)
0.04 in
(1.02 mm)
2 1/2SM
08:04
Overcast
Heavy Rain
54°F / 12°C 46°F / 8°C 77% 29.47 in
(998 mb)
WNW 6.9 mph
(WNW 11 kph)
0.03 in
(0.76 mm)
1 1/2SM
07:58
Overcast
Rain
54°F / 12°C 46°F / 8°C 77% 29.47 in
(998 mb)
W 9.2 mph
(W 15 kph)
0.01 in
(0.25 mm)
2SM
07:54
Overcast
Rain
54°F / 12°C 46°F / 8°C 77% 29.47 in
(998 mb)
W 9.2 mph
(W 15 kph)
0.01 in
(0.25 mm)
3SM
06:54
Mostly Cloudy
57°F / 14°C 48°F / 9°C 72% 29.44 in
(997 mb)
NNW 9.2 mph
(NNW 15 kph)
- 10SM
05:54
Mostly Cloudy
55°F / 13°C 48°F / 9°C 77% 29.47 in
(998 mb)
W 8.1 mph
(W 13 kph)
- 10SM
04:54
Mostly Cloudy
52°F / 11°C 48°F / 9°C 88% 29.44 in
(997 mb)
SSW 3.5 mph
(SSW 6 kph)
- 7SM
03:54
Overcast
Fog And Mist
52°F / 11°C 48°F / 9°C 88% 29.44 in
(997 mb)
S 6.9 mph
(S 11 kph)
- 6SM
02:54
Partly Cloudy
52°F / 11°C 48°F / 9°C 88% 29.44 in
(997 mb)
SW 4.6 mph
(SW 7 kph)
- 9SM
01:54
Overcast
54°F / 12°C 50°F / 10°C 88% 29.44 in
(997 mb)
SSW 9.2 mph
(SSW 15 kph)
- 10SM
00:54
Clear
54°F / 12°C 50°F / 10°C 88% 29.44 in
(997 mb)
SW 6.9 mph
(SW 11 kph)
- 10SM
Time Weather Temperature Dewpoint Humidity Pressure Winds Precip Visibility


Weather for websites

WeatherForYou.com, LLC is not responsible for any damages or problems caused by this service. Current weather conditions are obtained from the closest station including government and personal stations which may have varying degrees of accuracy. Weather forecasts are derived from the NOAA NDFD. Like all things, this site belongs to Jesus Christ... He just trusts me to maintain it. If you have any questions or comments email webmaster@weatherforyou.com

Copyright © 2014, WeatherForYou.com LLC. All rights reserved.